| time (UTC) | temp C | wind direction | speed KPH | gust KPH | rain 1hr cm | rain 24hr cm | rain mn cm | humidity % | barometer mb |
| 20260505124601 | 3 | 298 | 8.0 | 12.9 | 0.00 | 0.00 | 0.00 | 74 | 1010.7 |
| 20260505123104 | 3 | 293 | 9.7 | 12.9 | 0.00 | 0.00 | 0.00 | 75 | 1010.6 |
| 20260505121556 | 2 | 295 | 4.8 | 11.3 | 0.00 | 0.00 | 0.00 | 75 | 1010.5 |
| 20260505120052 | 2 | 292 | 6.4 | 11.3 | 0.00 | 0.00 | 0.00 | 77 | 1010.3 |
| 20260505114549 | 1 | 296 | 6.4 | 8.0 | 0.00 | 0.00 | 0.00 | 77 | 1010.3 |
| 20260505113045 | 0 | 300 | 6.4 | 8.0 | 0.00 | 0.00 | 0.00 | 77 | 1009.8 |
| 20260505111542 | 0 | 279 | 4.8 | 11.3 | 0.00 | 0.00 | 0.00 | 76 | 1009.4 |
| 20260505101536 | 1 | 306 | 6.4 | 8.0 | 0.00 | 0.00 | 0.00 | 74 | 1008.9 |
| 20260505100030 | 1 | 311 | 4.8 | 9.7 | 0.00 | 0.00 | 0.00 | 73 | 1008.9 |
| 20260505094526 | 2 | 315 | 4.8 | 9.7 | 0.00 | 0.00 | 0.00 | 71 | 1008.9 |
| 20260505093034 | 3 | 315 | 3.2 | 9.7 | 0.00 | 0.00 | 0.00 | 69 | 1008.6 |
| 20260505091525 | 3 | 317 | 4.8 | 14.5 | 0.00 | 0.00 | 0.00 | 70 | 1008.6 |
| 20260505090021 | 2 | 313 | 8.0 | 12.9 | 0.00 | 0.00 | 0.00 | 70 | 1008.6 |
| 20260505084519 | 3 | 307 | 8.0 | 14.5 | 0.00 | 0.00 | 0.00 | 69 | 1008.6 |
| 20260505083022 | 3 | 321 | 6.4 | 12.9 | 0.00 | 0.00 | 0.00 | 69 | 1008.6 |
| 20260505081515 | 3 | 332 | 4.8 | 9.7 | 0.00 | 0.00 | 0.00 | 67 | 1008.5 |
| 20260505080012 | 3 | 336 | 3.2 | 6.4 | 0.00 | 0.00 | 0.00 | 67 | 1008.3 |
| 20260505074510 | 3 | 336 | 4.8 | 8.0 | 0.00 | 0.00 | 0.00 | 68 | 1008.2 |
| 20260505073011 | 3 | 336 | 4.8 | 8.0 | 0.00 | 0.00 | 0.00 | 68 | 1008.2 |
| 20260505071508 | 3 | 339 | 3.2 | 8.0 | 0.00 | 0.00 | 0.00 | 67 | 1008.1 |
| 20260505070007 | 3 | 345 | 3.2 | 6.4 | 0.00 | 0.00 | 0.00 | 69 | 1008.0 |
| 20260505064504 | 3 | 345 | 4.8 | 8.0 | 0.00 | 0.00 | 0.00 | 68 | 1008.0 |
| 20260505063002 | 4 | 345 | 3.2 | 6.4 | 0.00 | 0.00 | 0.00 | 66 | 1007.8 |
| 20260505061639 | 4 | 345 | 3.2 | 6.4 | 0.00 | 0.00 | 0.00 | 67 | 1007.8 |
| 20260505060103 | 4 | 345 | 0.0 | 3.2 | 0.00 | 0.00 | 0.00 | 66 | 1007.9 |
| 20260505054555 | 5 | 345 | 0.0 | 4.8 | 0.00 | 0.00 | 0.00 | 64 | 1008.0 |
| 20260505053052 | 5 | 347 | 4.8 | 8.0 | 0.00 | 0.00 | 0.00 | 63 | 1007.8 |
| 20260505051609 | 6 | 339 | 3.2 | 6.4 | 0.00 | 0.00 | 0.00 | 61 | 1007.7 |
| 20260505041543 | 8 | 321 | 6.4 | 9.7 | 0.00 | 0.00 | 0.00 | 56 | 1007.9 |
| 20260505040039 | 8 | 360 | 6.4 | 12.9 | 0.00 | 0.00 | 0.00 | 55 | 1007.7 |
| 20260505034637 | 8 | 316 | 6.4 | 12.9 | 0.00 | 0.00 | 0.00 | 54 | 1007.8 |
| 20260505033033 | 8 | 322 | 6.4 | 12.9 | 0.00 | 0.00 | 0.00 | 54 | 1007.7 |
| 20260505031531 | 9 | 323 | 8.0 | 14.5 | 0.00 | 0.00 | 0.00 | 53 | 1007.5 |
| 20260505030032 | 9 | 321 | 6.4 | 14.5 | 0.00 | 0.00 | 0.00 | 52 | 1007.5 |
| 20260505024528 | 9 | 323 | 6.4 | 16.1 | 0.00 | 0.00 | 0.00 | 52 | 1007.3 |
| 20260505023027 | 10 | 320 | 6.4 | 16.1 | 0.00 | 0.00 | 0.00 | 50 | 1007.2 |
| 20260505021525 | 10 | 325 | 11.3 | 19.3 | 0.00 | 0.00 | 0.00 | 49 | 1007.0 |
| 20260505020023 | 10 | 312 | 14.5 | 25.7 | 0.00 | 0.00 | 0.00 | 48 | 1006.9 |
| 20260505014522 | 10 | 309 | 16.1 | 27.4 | 0.00 | 0.00 | 0.00 | 48 | 1006.6 |
| 20260505013020 | 10 | 330 | 20.9 | 32.2 | 0.00 | 0.00 | 0.00 | 48 | 1006.4 |
| 20260505011518 | 10 | 306 | 19.3 | 32.2 | 0.00 | 0.00 | 0.00 | 48 | 1006.3 |
| 20260505010017 | 11 | 310 | 22.5 | 35.4 | 0.00 | 0.00 | 0.00 | 47 | 1006.2 |
| 20260505004514 | 11 | 308 | 25.7 | 43.5 | 0.00 | 0.00 | 0.00 | 47 | 1005.9 |
| 20260505003020 | 11 | 360 | 33.8 | 51.5 | 0.00 | 0.00 | 0.00 | 47 | 1005.5 |
| 20260505001508 | 12 | 311 | 32.2 | 46.7 | 0.00 | 0.00 | 0.00 | 48 | 1005.1 |
| 20260505000008 | 12 | 309 | 33.8 | 51.5 | 0.00 | 0.00 | 0.00 | 44 | 1004.8 |
| 20260504234504 | 12 | 309 | 27.4 | 38.6 | 0.00 | 0.00 | 0.00 | 46 | 1004.6 |
| 20260504233005 | 12 | 304 | 24.1 | 45.1 | 0.00 | 0.00 | 0.00 | 46 | 1004.6 |
| 20260504231501 | 13 | 360 | 32.2 | 45.1 | 0.00 | 0.00 | 0.00 | 44 | 1004.6 |
| 20260504230100 | 13 | 305 | 29.0 | 43.5 | 0.00 | 0.00 | 0.00 | 44 | 1004.4 |
| 20260504230002 | 13 | 306 | 29.0 | 43.5 | 0.00 | 0.00 | 0.00 | 44 | 1004.4 |
| 20260504224600 | 13 | 304 | 32.2 | 53.1 | 0.00 | 0.00 | 0.00 | 43 | 1004.2 |
| 20260504223058 | 13 | 291 | 33.8 | 53.1 | 0.00 | 0.00 | 0.00 | 44 | 1004.1 |
| 20260504221556 | 13 | 295 | 33.8 | 48.3 | 0.00 | 0.00 | 0.00 | 42 | 1004.0 |
| 20260504220055 | 13 | 298 | 30.6 | 48.3 | 0.00 | 0.00 | 0.00 | 47 | 1003.9 |
| 20260504214556 | 13 | 289 | 29.0 | 48.3 | 0.00 | 0.00 | 0.00 | 47 | 1003.8 |
| 20260504213053 | 14 | 360 | 37.0 | 49.9 | 0.00 | 0.00 | 0.00 | 43 | 1003.6 |
| 20260504211552 | 15 | 360 | 29.0 | 53.1 | 0.00 | 0.00 | 0.00 | 42 | 1003.1 |
| 20260504210105 | 15 | 306 | 32.2 | 49.9 | 0.00 | 0.00 | 0.00 | 40 | 1002.8 |
| 20260504204651 | 16 | 310 | 32.2 | 48.3 | 0.00 | 0.00 | 0.00 | 39 | 1002.8 |
| 20260504203103 | 16 | 310 | 32.2 | 46.7 | 0.00 | 0.00 | 0.00 | 37 | 1002.7 |
| 20260504201548 | 17 | 298 | 35.4 | 51.5 | 0.00 | 0.00 | 0.00 | 35 | 1002.5 |
| 20260504200048 | 17 | 310 | 33.8 | 59.5 | 0.00 | 0.00 | 0.00 | 35 | 1002.4 |
| 20260504194550 | 18 | 306 | 32.2 | 51.5 | 0.00 | 0.00 | 0.00 | 38 | 1002.1 |
| 20260504193049 | 18 | 360 | 30.6 | 48.3 | 0.00 | 0.00 | 0.00 | 38 | 1002.1 |
| 20260504191545 | 18 | 299 | 30.6 | 41.8 | 0.00 | 0.00 | 0.00 | 37 | 1002.0 |
| 20260504190107 | 18 | 360 | 32.2 | 48.3 | 0.00 | 0.00 | 0.00 | 36 | 1002.0 |
| 20260504184544 | 19 | 333 | 35.4 | 43.5 | 0.00 | 0.00 | 0.00 | 36 | 1001.9 |
| 20260504183043 | 19 | 360 | 25.7 | 53.1 | 0.00 | 0.00 | 0.00 | 35 | 1001.9 |
| 20260504181542 | 18 | 312 | 27.4 | 41.8 | 0.00 | 0.00 | 0.00 | 36 | 1001.8 |
| 20260504180041 | 18 | 298 | 29.0 | 49.9 | 0.00 | 0.00 | 0.00 | 36 | 1001.5 |
| 20260504174539 | 18 | 294 | 29.0 | 45.1 | 0.00 | 0.00 | 0.00 | 37 | 1001.3 |
| 20260504173037 | 18 | 340 | 27.4 | 41.8 | 0.00 | 0.00 | 0.00 | 37 | 1001.1 |
| 20260504171535 | 18 | 313 | 20.9 | 38.6 | 0.00 | 0.00 | 0.00 | 39 | 1001.1 |